Weather History for Chitose AB, Japan

Change the Weather History Date:

Wednesday, January 30, 2013

  Actual Average Record
Temperature  
Mean Temperature 19 °F -  
Max Temperature 30 °F 29 °F 39 °F (2014)
Min Temperature 8 °F 8 °F -7 °F (1998)
Degree Days  
Heating Degree Days 46    
Moisture  
Dew Point 18 °F    
Average Humidity 86    
Maximum Humidity 100    
Minimum Humidity 69    
Precipitation  
Precipitation 0.00 in - - ()
Sea Level Pressure  
Sea Level Pressure 30.18 in    
Wind  
Wind Speed 9 mph ()    
Max Wind Speed 21 mph    
Max Gust Speed -    
Visibility 4.9 miles    
Events Snow    
Averages and records for this station are not official NWS values.
T = Trace of Precipitation, MM = Missing Value Source: Averaged Metar Reports

Daily Weather History Graph

Daily Weather History Graph

Search for Another Location

Airport:

Trip Planner

Search our weather history database for the weather conditions in past years. The results will help you decide how hot, cold, wet, or windy it might be!

Date:

Astronomy

Jan. 30, 2013 Rise Set
Actual Time 6:50 AM JST 4:43 PM JST
Civil Twilight 6:20 AM JST 5:13 PM JST
Nautical Twilight 5:46 AM JST 5:47 PM JST
Astronomical Twilight 5:12 AM JST 6:20 PM JST
Moon 8:07 PM JST (1/30) 7:52 AM JST (1/30)
Length of Visible Light 10h 53m
Length of Day
9h 53m
Waning Gibbous, 91% of the Moon is Illuminated
Jan 30
Waning Gibbous
Feb 3
Last Quarter
Feb 10
New
Feb 18
First Quarter
Feb 26
Full

Hourly Weather History & Observations

Time (JST) Temp. Windchill Dew Point Humidity Pressure Visibility Wind Dir Wind Speed Gust Speed Precip Events Conditions
12:00 AM 19.4 °F 11.5 °F 17.6 °F 93% 30.06 in 6.2 mi NNW 5.8 mph - N/A Snow Light Snow Showers
12:30 AM 15.8 °F 7.2 °F 14.0 °F 93% 30.06 in 6.2 mi NNW 5.8 mph - N/A Snow Light Snow Showers
12:39 AM 17.6 °F 9.3 °F 15.8 °F 93% 30.06 in 0.6 mi NNW 5.8 mph - N/A Snow Snow Showers
12:48 AM 21.2 °F 13.6 °F 19.4 °F 93% 30.06 in 0.6 mi NNW 5.8 mph - N/A Snow Light Snow Showers
1:00 AM 17.6 °F 9.3 °F 17.6 °F 100% 30.06 in 3.1 mi North 5.8 mph - N/A Snow Light Snow Showers
1:30 AM 17.6 °F 9.3 °F 15.8 °F 93% 30.06 in 6.2 mi North 5.8 mph - N/A Snow Light Snow Showers
2:00 AM 19.4 °F 9.5 °F 19.4 °F 100% 30.06 in 1.6 mi NNW 8.1 mph - N/A Snow Light Snow Showers
2:30 AM 14.0 °F 3.9 °F 12.2 °F 93% 30.09 in 6.2 mi NNW 6.9 mph - N/A Snow Light Snow Showers
3:00 AM 14.0 °F 2.9 °F 12.2 °F 93% 30.06 in 6.2 mi North 8.1 mph - N/A Snow Light Snow Showers
3:30 AM 15.8 °F 7.2 °F 14.0 °F 93% 30.09 in 3.1 mi North 5.8 mph - N/A Snow Light Snow Showers
4:00 AM 15.8 °F 5.1 °F 14.0 °F 93% 30.09 in 3.1 mi North 8.1 mph - N/A Snow Light Snow Showers
4:30 AM 14.0 °F 5.1 °F 12.2 °F 93% 30.09 in 5.0 mi North 5.8 mph - N/A Snow Light Snow Showers
5:00 AM 12.2 °F 1.7 °F 10.4 °F 92% 30.09 in 4.3 mi NNW 6.9 mph - N/A Snow Light Snow Showers
5:11 AM 12.2 °F 1.7 °F 10.4 °F 92% 30.09 in 5.0 mi North 6.9 mph - N/A Snow Light Snow Showers
5:21 AM 12.2 °F 2.9 °F 12.2 °F 100% 30.09 in 5.0 mi North 5.8 mph - N/A Snow Light Snow Showers
5:30 AM 10.4 °F 0.8 °F 8.6 °F 92% 30.09 in 5.0 mi North 5.8 mph - N/A Snow Light Snow Showers
6:00 AM 8.6 °F -2.6 °F 6.8 °F 92% 30.09 in 5.0 mi North 6.9 mph - N/A Snow Light Snow Showers
6:10 AM 12.2 °F 1.7 °F 10.4 °F 92% 30.09 in 5.0 mi NNW 6.9 mph - N/A Snow Light Snow Showers
6:30 AM 12.2 °F 1.7 °F 10.4 °F 92% 30.12 in 4.3 mi North 6.9 mph - N/A Snow Light Snow Showers
6:33 AM 12.2 °F 2.9 °F 10.4 °F 92% 30.12 in - North 5.8 mph - N/A Snow Light Snow Showers
6:46 AM 12.2 °F 4.3 °F 10.4 °F 92% 30.12 in 3.1 mi North 4.6 mph - N/A Snow Light Snow Showers
7:00 AM 12.2 °F 6.1 °F 10.4 °F 92% 30.12 in 3.7 mi North 3.5 mph - N/A Snow Light Snow Showers
7:30 AM 12.2 °F 1.7 °F 10.4 °F 92% 30.12 in 4.3 mi NNW 6.9 mph - N/A Snow Light Snow Showers
8:00 AM 12.2 °F 1.7 °F 10.4 °F 92% 30.15 in 3.7 mi North 6.9 mph - N/A Snow Light Snow Showers
8:12 AM 14.0 °F 3.9 °F 14.0 °F 100% 30.15 in - North 6.9 mph - N/A Snow Light Snow Showers
8:30 AM 17.6 °F 5.7 °F 15.8 °F 93% 30.15 in 3.1 mi North 10.4 mph - N/A Snow Light Snow Showers
9:00 AM 17.6 °F 7.3 °F 15.8 °F 93% 30.15 in 6.2 mi North 8.1 mph - N/A Snow Light Snow Showers
9:27 AM 19.4 °F 9.5 °F 17.6 °F 93% 30.15 in - North 8.1 mph - N/A Snow Light Snow Showers
9:30 AM 19.4 °F 9.5 °F 17.6 °F 93% 30.15 in 2.5 mi North 8.1 mph - N/A Snow Light Snow Showers
9:45 AM 21.2 °F 10.1 °F 21.2 °F 100% 30.15 in 3.1 mi North 10.4 mph - N/A Snow Light Snow Showers
9:50 AM 21.2 °F 9.5 °F 21.2 °F 100% 30.15 in - North 11.5 mph - N/A Snow Light Snow Showers
10:00 AM 23.0 °F 11.1 °F 21.2 °F 93% 30.15 in 2.8 mi North 12.7 mph - N/A Snow Light Snow Showers
10:30 AM 24.8 °F 13.4 °F 19.4 °F 80% 30.18 in 3.1 mi North 12.7 mph - N/A Snow Light Snow Showers
11:00 AM 26.6 °F 15.2 °F 21.2 °F 80% 30.18 in 6.2 mi North 13.8 mph - N/A   Scattered Clouds
11:15 AM 28.4 °F 16.2 °F 21.2 °F 74% 30.15 in - North 17.3 mph - N/A Snow Light Snow Showers
11:23 AM 28.4 °F 16.2 °F 21.2 °F 74% 30.18 in 3.1 mi North 17.3 mph - N/A Snow Light Snow Showers
11:30 AM 28.4 °F 16.6 °F 21.2 °F 74% 30.18 in - North 16.1 mph - N/A Snow Light Snow Showers
12:00 PM 30.2 °F 18.1 °F 21.2 °F 69% 30.18 in - North 18.4 mph - N/A Snow Light Snow Showers
12:07 PM 28.4 °F 15.8 °F 23.0 °F 80% 30.18 in - North 18.4 mph - N/A Snow Light Snow Showers
12:17 PM 28.4 °F 16.6 °F 23.0 °F 80% 30.18 in - North 16.1 mph - N/A Snow Light Snow Showers
12:30 PM 30.2 °F 18.9 °F 23.0 °F 75% 30.18 in 3.1 mi North 16.1 mph - N/A Snow Light Snow Showers
1:00 PM 30.2 °F 18.9 °F 23.0 °F 75% 30.18 in 6.2 mi North 16.1 mph - N/A Snow Light Snow Showers
1:30 PM 30.2 °F 18.1 °F 23.0 °F 75% 30.18 in 6.2 mi North 18.4 mph - N/A Snow Light Snow Showers
2:00 PM 30.2 °F 17.4 °F 23.0 °F 75% 30.18 in 6.2 mi North 20.7 mph - N/A   Mostly Cloudy
2:30 PM 30.2 °F 18.9 °F 23.0 °F 75% 30.21 in 6.2 mi North 16.1 mph - N/A   Mostly Cloudy
3:00 PM 30.2 °F 17.8 °F 23.0 °F 75% 30.21 in 6.2 mi North 19.6 mph - N/A   Partly Cloudy
3:30 PM 30.2 °F 17.8 °F 23.0 °F 75% 30.21 in 6.2 mi North 19.6 mph - N/A   Partly Cloudy
4:00 PM 30.2 °F 18.5 °F 23.0 °F 75% 30.24 in 6.2 mi North 17.3 mph - N/A   Partly Cloudy
4:30 PM 28.4 °F 16.2 °F 23.0 °F 80% 30.24 in 6.2 mi North 17.3 mph - N/A   Partly Cloudy
5:00 PM 28.4 °F 16.6 °F 23.0 °F 80% 30.27 in 6.2 mi North 16.1 mph - N/A   Partly Cloudy
5:30 PM 26.6 °F 14.7 °F 21.2 °F 80% 30.27 in 6.2 mi North 15.0 mph - N/A   Partly Cloudy
6:00 PM 26.6 °F 14.7 °F 21.2 °F 80% 30.30 in 6.2 mi North 15.0 mph - N/A   Partly Cloudy
6:30 PM 26.6 °F 15.2 °F 21.2 °F 80% 30.30 in 6.2 mi North 13.8 mph - N/A   Scattered Clouds
7:00 PM 26.6 °F 15.2 °F 21.2 °F 80% 30.33 in 6.2 mi North 13.8 mph - N/A   Partly Cloudy
7:30 PM 26.6 °F 15.2 °F 21.2 °F 80% 30.33 in 6.2 mi North 13.8 mph - N/A   Mostly Cloudy
8:00 PM 28.4 °F 18.5 °F 21.2 °F 74% 30.36 in 6.2 mi North 11.5 mph - N/A   Mostly Cloudy
8:30 PM 26.6 °F 18.2 °F 21.2 °F 80% 30.36 in 6.2 mi NNW 8.1 mph - N/A   Mostly Cloudy
9:00 PM 24.8 °F 14.6 °F 19.4 °F 80% 30.36 in 6.2 mi North 10.4 mph - N/A   Mostly Cloudy
9:30 PM 24.8 °F 15.3 °F 19.4 °F 80% 30.39 in 6.2 mi NNW 9.2 mph - N/A   Mostly Cloudy
10:00 PM 24.8 °F 14.6 °F 21.2 °F 86% 30.39 in 6.2 mi NNW 10.4 mph - N/A   Mostly Cloudy
10:30 PM 24.8 °F 14.0 °F 19.4 °F 80% 30.39 in 6.2 mi NNW 11.5 mph - N/A   Mostly Cloudy
11:00 PM 23.0 °F 14.7 °F 19.4 °F 86% 30.39 in 6.2 mi North 6.9 mph - N/A   Scattered Clouds
11:30 PM 21.2 °F 12.6 °F 19.4 °F 93% 30.39 in 6.2 mi North 6.9 mph - N/A   Scattered Clouds